Wilson Observed Data For Previous 48 Hours

Caption
Day and Hour Reservoir Elevation (behind dam)* Tailwater Elevation (below dam)* Average Hourly Discharge*
6/20/2018 1 AM CDT 506.71 414.32 19,583
6/20/2018 2 AM CDT 506.76 414.27 19,769
6/20/2018 3 AM CDT 506.73 414.36 20,143
6/20/2018 4 AM CDT 506.73 414.41 19,872
6/20/2018 5 AM CDT 506.76 414.38 19,842
6/20/2018 6 AM CDT 506.77 414.40 19,481
6/20/2018 7 AM CDT 506.81 414.38 19,592
6/20/2018 8 AM CDT 506.79 414.47 20,190
6/20/2018 9 AM CDT 506.80 414.51 20,146
6/20/2018 10 AM CDT 506.81 414.44 19,466
6/20/2018 11 AM CDT 506.81 415.06 19,489
6/20/2018 12 PM CDT 506.81 414.84 26,441
6/20/2018 1 PM CDT 506.77 414.76 26,266
6/20/2018 2 PM CDT 506.76 414.73 26,439
6/20/2018 3 PM CDT 506.75 414.53 23,353
6/20/2018 4 PM CDT 506.74 414.70 24,019
6/20/2018 5 PM CDT 506.70 414.75 25,604
6/20/2018 6 PM CDT 506.71 414.64 25,742
6/20/2018 7 PM CDT 506.72 414.66 25,284
6/20/2018 8 PM CDT 506.65 414.64 25,547
6/20/2018 9 PM CDT 506.64 414.64 25,320
6/20/2018 10 PM CDT 506.65 414.19 20,053
6/20/2018 11 PM CDT 506.66 414.19 19,971
6/21/2018 12 AM CDT 506.68 414.20 19,197
6/21/2018 1 AM CDT 506.69 414.79 25,870
6/21/2018 2 AM CDT 506.68 414.83 26,509
6/21/2018 3 AM CDT 506.70 414.94 26,411
6/21/2018 4 AM CDT 506.77 414.81 25,959
6/21/2018 5 AM CDT 506.74 414.82 26,792
6/21/2018 6 AM CDT 506.80 414.79 27,428
6/21/2018 7 AM CDT 506.80 415.00 26,856
6/21/2018 8 AM CDT 506.85 414.82 24,857
6/21/2018 9 AM CDT 506.86 415.07 27,055
6/21/2018 10 AM CDT 506.84 414.90 26,864
6/21/2018 11 AM CDT 506.83 415.01 27,622
6/21/2018 12 PM CDT 506.83 415.04 27,487
6/21/2018 1 PM CDT 506.84 415.00 28,457
6/21/2018 2 PM CDT 506.82 414.93 27,885
6/21/2018 3 PM CDT 506.81 414.91 27,835
6/21/2018 4 PM CDT 506.83 414.95 28,042
6/21/2018 5 PM CDT 506.83 414.97 29,670
6/21/2018 6 PM CDT 506.82 414.92 29,563
6/21/2018 7 PM CDT 506.83 414.76 27,496
6/21/2018 8 PM CDT 506.84 414.82 27,720
6/21/2018 9 PM CDT 506.82 414.76 27,635
6/21/2018 10 PM CDT 506.83 414.86 27,093
6/21/2018 11 PM CDT 506.90 414.71 27,219
6/22/2018 12 AM CDT 506.87 414.77 27,559

Elevations are in feet above sea level. Discharges are in cubic feet per second and are reported at the end of the hour.